Temperature
15 14 14 14 14 14 14 13 13 13 13 13 13 13 13 12 12 12 12 12 12 12 12 12 12 12 12 11 11 11 11 11 11 11 11 11 11 11 11 11 11 11 11
14 14 14 14 14 14 13 13 13 13 13 13 12 12 12 12 12 12 12 12 12 12 12 12 12 12 11 11 11 11 11 11 11 11 11 11 11 11 11 11 10 10 10
14 14 14 14 13 13 13 13 13 12 12 12 12 12 12 12 12 12 12 12 12 12 12 12 12 11 11 11 11 11 11 11 11 11 11 10 10 10 10 10 10 10 10
14 13 13 13 13 13 13 12 12 12 12 12 12 12 11 11 11 11 11 11 11 11 11 11 11 11 11 11 11 11 11 11 11 10 10 10 10 10 10 10 10 10 10
13 13 13 13 13 12 12 12 12 12 11 11 11 11 11 11 11 11 11 11 11 11 11 11 11 11 11 11 11 11 11 11 10 10 10 10 10 10 10 10 10 10 10
13 13 12 12 12 12 12 12 12 11 11 11 11 11 11 11 11 11 11 11 11 11 11 11 11 10 10 10 10 10 10 10 10 10 10 10 10 10 10 9 9 9 9
12 12 12 12 12 12 11 11 11 11 11 10 10 10 10 10 10 10 10 10 10 10 10 10 10 10 10 10 10 10 10 10 10 10 10 10 10 9 9 9 9 9 9
12 12 12 12 11 11 11 11 11 10 10 10 10 10 10 10 10 10 10 10 10 10 10 10 10 10 10 10 10 10 9 9 9 9 9 9 9 9 9 9 9 8 8
12 12 11 11 11 11 11 10 10 10 10 10 10 9 9 9 9 9 9 9 9 9 9 9 9 9 9 9 9 9 9 9 9 9 9 9 9 8 8 8 8 8 8
12 11 11 11 11 10 10 10 10 10 10 9 9 9 9 9 9 9 9 9 9 9 9 9 9 8 8 8 8 8 8 8 8 8 8 8 8 8 8 8 8 7 7
11 11 11 10 10 10 10 10 10 9 9 9 9 9 9 8 8 8 8 8 8 8 8 8 8 8 8 8 8 8 8 8 8 8 8 8 8 8 8 7 7 7 7
11 11 10 10 10 10 10 9 9 9 9 9 9 8 8 8 8 8 8 7 7 7 7 8 8 8 8 8 7 7 7 7 7 7 7 7 7 7 7 7 7 7 7
10 10 10 10 10 9 9 9 9 9 9 8 8 8 8 8 7 7 7 7 7 7 7 7 7 7 7 7 7 7 7 7 7 7 7 7 7 7 6 6 6 6 6
10 10 10 9 9 9 9 8 8 8 8 8 8 8 7 7 7 7 7 7 7 7 7 7 7 7 7 6 6 6 6 6 6 6 6 5 5 5 6 6 6 6 6
10 9 9 9 9 8 8 8 8 8 7 7 7 7 7 7 7 7 7 6 6 6 6 6 6 6 6 6 6 6 5 5 5 5 5 5 5 5 5 5 5 5 5
9 9 9 8 8 8 8 7 7 7 7 7 7 7 7 6 6 6 6 6 6 6 6 6 6 6 6 6 5 5 5 5 5 4 4 4 4 4 4 4 4 4 4
9 9 8 8 8 7 7 7 7 7 7 7 6 6 6 6 6 6 6 6 5 5 5 5 5 5 5 5 5 4 4 4 4 4 4 4 4 4 4 3 3 4 4
8 8 8 8 7 7 7 7 6 6 6 6 6 6 6 6 5 5 5 5 5 5 5 4 4 4 4 4 4 4 4 4 3 3 3 3 3 3 3 3 3 3 3
8 8 7 7 7 7 6 6 6 6 6 6 6 5 5 5 5 5 5 4 5 5 4 4 4 4 4 4 3 3 3 3 3 3 3 3 3 3 3 3 3 3 3
7 7 7 7 6 6 6 6 6 6 5 5 5 5 5 5 4 4 4 4 4 4 4 4 4 3 3 3 3 3 2 3 3 3 3 2 2 2 2 2 2 2 2
7 7 6 6 6 6 6 5 5 5 5 5 5 5 4 4 4 4 4 4 4 4 3 3 3 3 3 3 2 2 2 2 2 2 2 2 2 2 2 2 2 2 2
6 6 6 6 6 5 5 5 5 5 5 5 4 4 4 4 4 3 3 3 3 3 3 3 3 2 2 2 2 2 2 2 2 1 1 1 2 2 2 2 2 2 2
6 6 5 5 5 5 5 5 5 4 4 4 4 4 3 3 3 3 3 3 3 3 2 2 2 2 2 2 2 1 1 1 1 1 1 1 1 1 1 1 1 1 1
5 5 5 5 5 4 4 4 4 4 4 3 3 3 3 3 3 3 2 2 2 2 2 2 2 2 1 1 1 1 1 1 1 1 1 1 1 1 1 1 1 1 1
5 5 5 4 4 4 4 4 4 3 3 3 3 3 2 2 2 2 2 2 2 2 2 1 1 1 1 1 1 1 1 1 1 1 1 0 0 0 1 1 1 1 1
4 4 4 4 4 3 3 3 3 3 3 2 2 2 2 2 2 2 2 2 1 1 1 1 1 1 1 1 1 1 1 1 1 0 0 0 0 0 0 0 0 0 0
Wind_Speed
4 4 4 3 3 3 3 4 3 3 2 3 3 3 3 3 3 3 3 3 3 2 2 2 2 2 1 1 1 2 2 3 3 3 2 1 1 2 2 2 3 3 4
4 4 4 3 3 3 3 3 3 3 3 3 3 2 3 3 3 3 4 3 4 4 3 3 3 2 2 2 2 2 2 3 4 4 2 1 2 2 2 1 2 2 3
3 4 3 3 3 3 3 3 2 3 3 2 2 2 2 3 3 3 4 4 4 5 5 4 4 3 3 2 3 3 3 3 3 3 3 2 2 1 1 1 1 2 2
3 4 4 4 4 4 3 3 2 2 2 2 2 3 3 3 3 3 3 3 4 4 4 5 5 5 5 4 4 4 3 3 2 2 2 2 2 2 1 1 2 1 1
3 3 4 3 3 3 3 2 2 2 2 2 2 2 2 2 2 2 3 3 3 3 3 4 4 5 6 5 4 4 3 3 2 2 2 1 2 1 2 2 2 1 2
3 3 3 2 2 2 3 3 2 2 2 1 2 2 2 2 2 2 2 2 2 3 3 3 4 3 4 4 5 4 5 4 4 3 3 3 4 3 2 2 1 1 2
3 3 3 3 2 2 2 2 3 3 2 2 2 2 2 3 3 3 3 3 2 3 3 3 3 3 3 3 3 3 3 4 5 5 5 5 5 4 3 2 2 3 3
3 3 3 3 3 2 2 3 3 2 2 2 3 2 2 3 3 3 3 3 3 3 4 4 4 4 3 3 2 2 2 3 4 3 5 5 5 4 5 4 4 2 1
3 4 4 4 4 3 3 3 3 2 2 2 2 2 2 3 4 3 2 1 2 3 4 3 3 4 4 3 2 2 2 3 3 3 3 3 3 3 3 2 2 1 2
5 5 4 4 4 4 4 4 2 3 3 3 2 3 3 3 3 2 1 1 2 3 3 3 4 5 6 4 3 2 3 3 2 2 2 2 2 1 2 3 4 3 2
4 4 3 3 4 4 3 3 2 2 2 2 2 2 3 3 3 3 2 1 2 3 3 3 4 6 6 5 4 4 5 4 2 1 1 1 2 1 2 2 3 4 4
2 3 3 3 3 2 2 2 2 2 2 2 2 2 2 3 3 3 3 3 2 2 3 3 4 5 5 4 4 5 4 2 1 1 1 1 2 2 2 2 2 2 3
2 2 2 2 2 2 2 2 1 2 2 2 2 2 3 3 3 4 4 4 4 3 3 5 5 4 4 3 4 4 3 2 2 2 2 3 3 3 2 1 1 1 2
2 3 2 2 2 2 2 2 2 2 2 2 3 3 3 3 3 2 2 3 4 3 3 3 3 4 2 2 2 1 2 2 3 2 2 2 2 1 1 1 1 0 1
2 3 3 3 3 2 1 2 3 4 4 4 4 4 3 4 5 4 3 3 3 3 1 1 1 1 1 1 1 1 1 2 2 2 2 2 2 2 2 1 1 1 1
2 3 3 2 2 2 1 1 3 3 4 4 5 4 4 5 5 4 5 4 4 2 0 1 2 2 3 2 2 2 2 2 2 2 2 2 2 2 2 2 1 2 2
4 3 3 3 3 2 2 2 1 3 3 4 4 4 4 4 3 4 4 4 3 2 1 2 3 3 3 3 2 2 2 2 2 2 2 2 3 3 2 2 3 2 3
3 4 3 3 3 3 3 3 3 2 2 3 3 4 4 3 3 4 3 1 1 2 2 3 3 3 3 3 3 3 2 2 2 2 2 3 3 3 3 3 3 3 3
3 3 3 3 3 3 3 3 3 3 3 2 2 3 4 3 3 2 1 1 3 3 3 3 3 3 3 3 3 3 3 3 2 2 3 3 3 3 3 3 4 5 4
3 4 3 3 3 3 3 3 3 3 3 3 3 3 2 1 1 2 2 2 3 4 4 4 3 3 3 3 3 3 3 3 3 3 3 3 3 3 4 4 4 4 4
3 3 3 3 3 3 3 4 4 3 3 4 4 4 3 2 3 3 3 3 3 4 4 3 3 3 3 3 3 3 3 3 3 3 4 4 3 4 4 4 4 4 4
2 2 2 2 3 3 3 3 3 3 4 4 4 3 3 2 3 3 3 4 4 3 3 3 3 3 3 3 3 3 4 4 4 4 4 4 3 3 4 4 4 4 4
2 2 1 2 2 2 3 2 3 3 3 4 3 3 2 3 3 3 4 4 3 3 3 3 3 2 2 3 3 3 4 5 4 4 4 3 3 3 4 4 4 4 4
2 2 2 2 2 2 2 3 3 3 3 3 3 2 3 3 4 4 4 3 3 3 3 3 3 3 4 3 3 4 4 5 4 4 4 4 4 3 3 4 4 4 4
1 1 1 2 2 2 2 2 2 2 3 3 3 2 3 3 3 3 3 3 3 3 3 3 3 3 4 4 4 4 5 5 5 4 4 3 4 4 3 3 3 3 3
1 1 1 1 2 2 2 2 2 2 2 2 2 2 2 3 3 3 2 2 2 2 3 3 3 4 4 4 4 4 4 4 4 4 3 3 3 4 3 3 3 3 3
Wind_Direction
177 182 176 182 178 174 182 197 201 200 195 198 207 210 218 221 213 199 211 200 190 215 215 196 216 209 198 207 180 164 166 159 193 258 261 261 245 258 279 268 272 276 278
180 172 168 171 169 172 186 197 190 192 198 198 201 209 225 227 222 214 219 211 203 210 217 203 222 216 210 216 202 202 198 186 182 223 263 266 246 243 252 264 287 282 271
165 163 168 176 181 185 192 201 201 200 204 202 197 211 229 236 235 231 222 219 218 217 213 211 221 209 221 221 214 220 222 214 190 194 237 250 263 264 280 301 305 303 291
166 169 178 192 194 198 195 190 200 195 195 207 215 223 227 235 239 241 234 229 230 231 224 219 218 214 220 218 222 223 217 209 195 196 227 247 253 258 210 249 293 300 300
165 181 200 202 197 194 194 191 192 186 198 206 211 239 245 242 252 252 239 237 235 237 239 235 230 227 227 218 222 214 201 198 197 201 220 243 254 238 230 227 246 277 295
172 197 199 179 175 192 203 198 194 201 208 198 207 222 248 271 284 257 243 240 235 234 246 256 254 242 243 241 230 214 197 197 208 208 215 221 237 233 226 219 212 232 274
182 195 194 187 192 209 210 197 206 216 210 212 226 223 239 264 274 267 246 231 230 242 249 256 264 263 252 241 247 237 222 221 211 204 213 226 224 221 204 215 214 211 232
191 207 206 200 208 209 194 201 213 210 212 219 231 235 245 277 277 273 256 231 232 246 249 246 246 248 242 232 231 242 244 251 243 229 222 231 228 215 202 205 210 212 264
205 212 212 201 199 198 205 216 217 203 215 219 222 231 246 276 287 280 263 248 257 263 260 256 249 247 253 232 215 232 266 287 286 271 257 257 251 239 200 151 158 169 248
216 214 207 197 193 201 213 219 212 201 213 215 225 230 233 256 293 300 278 244 266 274 278 265 256 257 260 234 212 214 242 264 283 301 317 318 314 271 228 200 194 198 218
212 201 199 203 200 202 204 202 206 209 209 219 232 249 245 251 277 284 278 244 245 265 274 274 264 256 256 238 225 222 238 238 220 205 268 309 315 290 261 237 207 198 203
183 189 203 212 212 205 190 200 200 192 193 219 233 268 276 273 270 275 276 272 268 251 260 265 265 263 257 247 239 242 241 218 174 178 234 270 279 275 269 260 236 224 217
172 210 225 223 222 198 187 193 202 198 201 223 219 242 273 284 283 286 279 279 279 271 262 268 267 262 257 249 247 245 224 186 177 200 230 251 257 265 277 299 331 9 8
185 205 206 204 225 226 205 200 204 214 222 231 231 241 255 270 274 278 278 281 288 287 286 287 285 270 253 254 271 247 204 196 196 209 229 253 274 278 245 209 215 237 332
190 197 205 207 206 217 230 229 229 229 221 219 229 228 237 257 261 260 256 260 261 263 291 330 329 306 273 269 256 239 220 206 213 216 216 239 253 258 262 226 204 201 234
199 201 201 197 193 186 195 319 318 279 261 243 237 234 247 254 267 268 272 273 275 266 183 256 261 248 238 237 239 248 242 233 229 225 230 231 231 234 248 256 233 220 234
198 200 194 193 191 195 198 202 282 324 319 285 267 266 265 272 276 278 276 274 269 208 223 248 250 246 246 242 238 238 246 245 232 222 225 231 235 231 231 238 237 240 246
200 202 199 202 201 206 213 215 217 237 291 306 301 286 278 275 278 283 289 316 283 243 244 248 251 247 242 240 244 250 256 253 240 232 231 235 234 230 233 239 237 237 246
198 206 210 208 207 212 218 222 225 234 249 275 302 310 302 299 301 289 248 238 238 244 248 250 249 244 242 240 247 251 252 250 243 236 240 237 233 231 237 237 237 239 241
212 224 213 206 208 217 223 224 228 236 245 252 261 269 290 306 298 290 267 260 251 249 249 249 248 243 238 235 235 238 252 258 254 246 244 242 236 236 239 240 239 242 242
213 225 223 221 222 224 225 227 231 235 240 249 258 264 258 233 238 248 256 256 255 252 250 252 252 245 235 232 233 239 246 254 254 251 252 250 244 242 244 242 242 242 248
203 215 213 221 229 229 232 232 233 234 239 249 261 265 250 237 245 252 254 257 256 253 253 244 245 245 238 234 230 230 238 247 252 252 252 253 252 247 246 247 247 249 248
195 205 223 243 241 244 243 240 238 241 246 249 254 253 245 241 244 249 256 259 258 260 254 246 247 258 256 245 238 233 235 240 242 243 245 248 249 248 250 248 245 247 249
192 206 227 246 252 246 244 245 243 244 246 254 256 255 255 254 251 249 253 259 262 259 251 244 242 246 253 250 248 240 234 237 233 226 227 239 246 249 252 253 248 245 247
196 219 243 251 255 257 252 252 257 259 255 252 254 259 265 264 259 256 258 258 255 254 252 245 240 245 250 247 248 252 252 241 229 223 218 225 240 243 248 250 247 248 248
247 255 260 263 263 256 244 247 256 260 259 261 261 260 261 262 266 267 266 264 261 261 262 259 255 256 258 249 251 258 255 241 232 227 213 221 239 242 243 243 243 240 234
Height
1516 1517 1518 1518 1519 1520 1521 1521 1521 1522 1522 1522 1522 1522 1522 1522 1522 1522 1522 1522 1521 1521 1521 1521 1521 1521 1521 1521 1521 1521 1521 1521 1520 1520 1520 1520 1520 1520 1520 1519 1519 1518 1518
1514 1515 1515 1516 1517 1517 1518 1518 1519 1519 1520 1520 1520 1520 1519 1519 1519 1519 1519 1519 1519 1518 1518 1518 1518 1518 1518 1518 1518 1518 1518 1518 1518 1517 1517 1518 1518 1518 1517 1517 1517 1516 1516
1512 1513 1513 1514 1514 1514 1515 1516 1516 1516 1517 1517 1517 1517 1516 1516 1516 1516 1516 1516 1516 1516 1516 1516 1515 1515 1515 1515 1515 1515 1515 1515 1515 1515 1514 1515 1515 1515 1515 1515 1514 1514 1514
1510 1510 1510 1511 1512 1512 1513 1513 1514 1514 1514 1514 1514 1514 1513 1513 1513 1513 1513 1512 1512 1512 1512 1512 1512 1512 1512 1512 1512 1512 1512 1512 1512 1512 1512 1512 1512 1512 1512 1512 1511 1511 1510
1507 1507 1508 1509 1509 1510 1510 1510 1511 1511 1511 1511 1511 1510 1510 1510 1510 1509 1509 1509 1509 1509 1509 1509 1509 1509 1509 1509 1509 1508 1508 1508 1508 1508 1508 1508 1508 1509 1509 1508 1508 1508 1507
1505 1505 1505 1506 1506 1507 1507 1508 1508 1508 1507 1508 1507 1507 1507 1507 1507 1506 1506 1506 1505 1505 1505 1505 1505 1505 1505 1505 1505 1505 1505 1505 1505 1505 1505 1504 1504 1505 1505 1505 1505 1504 1503
1503 1503 1503 1503 1504 1504 1504 1504 1504 1504 1504 1504 1504 1504 1503 1503 1503 1503 1503 1502 1502 1501 1501 1501 1500 1500 1500 1501 1501 1501 1501 1501 1501 1501 1501 1501 1501 1501 1501 1501 1501 1501 1500
1500 1500 1501 1501 1501 1501 1501 1501 1501 1501 1501 1501 1501 1501 1500 1500 1500 1499 1499 1498 1498 1497 1497 1496 1496 1496 1496 1497 1496 1496 1496 1496 1496 1496 1496 1496 1497 1497 1497 1497 1497 1497 1497
1497 1498 1498 1498 1498 1498 1498 1498 1498 1498 1498 1498 1498 1498 1497 1497 1496 1496 1495 1494 1494 1493 1493 1492 1492 1492 1492 1492 1492 1491 1491 1492 1492 1492 1492 1492 1492 1493 1493 1493 1493 1493 1492
1494 1495 1495 1495 1495 1495 1495 1495 1495 1495 1495 1495 1495 1494 1494 1493 1493 1492 1492 1491 1490 1489 1488 1488 1488 1488 1487 1487 1487 1487 1486 1487 1487 1487 1487 1487 1487 1488 1488 1488 1488 1488 1487
1492 1492 1492 1492 1492 1492 1492 1492 1492 1492 1492 1491 1491 1491 1490 1490 1489 1489 1488 1487 1486 1485 1484 1484 1483 1483 1483 1483 1482 1482 1482 1483 1483 1483 1482 1482 1482 1482 1483 1483 1483 1483 1483
1489 1489 1489 1489 1489 1488 1488 1488 1488 1488 1488 1488 1487 1487 1486 1486 1485 1485 1484 1484 1483 1482 1481 1480 1479 1479 1479 1478 1478 1478 1478 1478 1478 1477 1477 1477 1477 1477 1478 1478 1478 1478 1479
1485 1485 1485 1485 1485 1485 1485 1484 1484 1485 1484 1484 1483 1483 1482 1482 1481 1481 1480 1480 1479 1478 1477 1476 1475 1475 1474 1473 1473 1473 1473 1473 1473 1473 1472 1472 1473 1473 1473 1473 1473 1474 1474
1482 1482 1482 1482 1482 1481 1481 1481 1481 1480 1480 1480 1479 1479 1478 1478 1477 1477 1476 1475 1475 1474 1473 1472 1471 1470 1470 1469 1468 1468 1468 1468 1468 1468 1468 1468 1468 1468 1468 1468 1468 1469 1469
1478 1478 1478 1478 1478 1478 1477 1477 1477 1477 1477 1476 1476 1475 1475 1474 1474 1473 1472 1471 1470 1470 1469 1468 1467 1466 1465 1464 1464 1463 1464 1464 1464 1463 1463 1463 1463 1463 1463 1464 1464 1464 1464
1475 1475 1475 1475 1474 1474 1473 1473 1473 1474 1473 1473 1473 1472 1471 1471 1470 1469 1468 1467 1466 1466 1464 1463 1462 1461 1461 1460 1459 1459 1459 1459 1459 1459 1459 1459 1458 1459 1459 1459 1459 1460 1459
1471 1471 1471 1471 1470 1470 1470 1469 1469 1470 1469 1469 1469 1468 1467 1467 1466 1465 1464 1463 1462 1461 1460 1458 1458 1457 1457 1456 1455 1455 1455 1455 1455 1455 1455 1455 1454 1454 1454 1454 1455 1455 1455
1468 1468 1467 1467 1467 1467 1467 1466 1466 1465 1465 1464 1464 1464 1463 1462 1461 1461 1459 1458 1457 1456 1455 1454 1453 1453 1452 1452 1451 1451 1450 1450 1450 1450 1450 1450 1450 1450 1449 1449 1450 1451 1451
1464 1464 1464 1463 1463 1463 1463 1463 1462 1462 1461 1460 1460 1459 1459 1458 1457 1456 1455 1454 1452 1451 1450 1449 1449 1448 1448 1448 1447 1447 1446 1446 1446 1446 1446 1446 1446 1445 1445 1445 1445 1446 1446
1460 1460 1460 1459 1459 1459 1459 1458 1458 1458 1457 1456 1456 1455 1454 1454 1452 1451 1450 1449 1448 1447 1446 1445 1444 1444 1444 1443 1443 1442 1442 1442 1442 1441 1441 1441 1441 1441 1441 1441 1441 1441 1441
1456 1456 1456 1455 1455 1455 1455 1454 1454 1454 1453 1452 1452 1451 1451 1449 1448 1447 1446 1445 1444 1443 1442 1441 1440 1440 1439 1439 1439 1438 1437 1437 1437 1437 1436 1436 1437 1437 1436 1436 1436 1436 1436
1453 1452 1452 1451 1451 1451 1450 1450 1450 1449 1448 1448 1447 1447 1446 1445 1444 1443 1442 1441 1440 1439 1438 1438 1437 1436 1435 1435 1434 1434 1433 1432 1432 1432 1432 1432 1432 1432 1432 1431 1431 1431 1431
1449 1448 1448 1447 1447 1446 1446 1446 1445 1445 1444 1444 1443 1442 1442 1441 1440 1439 1438 1437 1437 1436 1435 1434 1433 1432 1431 1431 1430 1430 1429 1428 1428 1428 1428 1427 1427 1427 1426 1426 1426 1426 1426
1445 1444 1444 1443 1443 1442 1442 1442 1441 1441 1440 1440 1439 1438 1438 1437 1436 1435 1434 1434 1433 1432 1431 1430 1429 1428 1427 1427 1426 1425 1425 1424 1424 1424 1424 1423 1423 1422 1422 1421 1421 1421 1421
1441 1440 1440 1439 1439 1438 1438 1437 1437 1437 1436 1436 1435 1434 1434 1433 1432 1431 1430 1430 1429 1428 1427 1427 1426 1424 1424 1423 1422 1422 1421 1421 1420 1420 1419 1419 1418 1418 1418 1417 1417 1417 1417
1438 1437 1436 1436 1435 1435 1434 1434 1433 1433 1432 1432 1431 1430 1430 1429 1428 1428 1427 1426 1426 1425 1424 1423 1422 1421 1420 1419 1419 1418 1418 1417 1416 1416 1415 1415 1414 1414 1414 1413 1413 1413 1413